Regional Weather Roundup
Issued by NWS Bismarck, ND

Home | Current Version | Previous Version | Text Only | Print | Product List | Glossary On
Versions: 1 2 3 4 5 6 7 8 9 10 11 12 13 14 15 16 17 18 19 20 21 22 23 24 25 26 27 28 29 30 31 32 33 34 35 36 37 38 39 40 41 42 43 44 45 46 47 48 49 50
000
ASUS43 KBIS 200310
RWRBIS

NWR BROADCAST TEXT
NATIONAL WEATHER SERVICE BISMARCK ND
1000 PM CDT FRI SEP 19 2014

NOTE: "FAIR" INDICATES FEW OR NO CLOUDS BELOW 12,000 FEET WITH NO
SIGNIFICANT WEATHER AND/OR OBSTRUCTIONS TO VISIBILITY.


CITY           SKY/WX    TMP DP  RH WIND       PRES   REMARKS
WILLISTON      PTCLDY    57  49  74 N3        29.80R
MINOT          CLEAR     63  53  70 W12       29.76R
MINOT AFB      CLEAR     77  55  47 NW25      29.58S
BISMARCK       MOCLDY    68  54  60 NW10      29.79R
DICKINSON      CLEAR     57  50  77 W7        29.84R
GARRISON         N/A     57  52  83 NW8       29.79R
HETTINGER ARPT PTCLDY    55  48  77 W5        29.88R
JAMESTOWN      CLOUDY    67  56  67 NW14      29.71R
BEACH            N/A     57  48  72 W9        29.87S
CARRINGTON     FAIR      63  63 100 NW10      29.73R
CROSBY         FAIR      54  54 100 W6        29.81R
HARVEY         FAIR      59  59 100 NW8       29.74R
HAZEN          FAIR      59  50  72 CALM      29.81R
LINTON         FAIR      66  54  63 NW5       29.78R
MANDAN         FAIR      64  52  63 NW8       29.80R
OAKES            N/A     68  55  64 W9        29.70R
RUGBY          FAIR      55  55 100 W7        29.73R
STANLEY        FAIR      55  55 100 NW5       29.81R
TIOGA          FAIR      54  54 100 W5        29.84R
WATFORD CITY   FAIR      59  48  67 CALM      29.80R
$$

CITY           SKY/WX    TMP DP  RH WIND       PRES   REMARKS
GRAND FORKS    MOCLDY    63  56  78 N14       29.63R
GRAND FORKS AF MOCLDY    62  58  84 N14       29.65R
DEVILS LAKE    MOCLDY    64  54  68 N9        29.69R
FARGO          MOCLDY    71  55  56 W14       29.60R
CANDO          FAIR      57  55  94 N6        29.72R
CAVALIER       FAIR      59  54  82 NW13G21   29.66R
GRAFTON        FAIR      61  54  77 N16       29.64R
GWINNER        CLEAR     70  54  56 W10       29.69R
LANGDON        FAIR      57  54  88 N14       29.70R
ROLLA          FAIR      55  54  94 NW7       29.74R
WALHALLA         N/A     57  55  94 NW15G21   29.68R
$$

CITY           SKY/WX    TMP DP  RH WIND       PRES   REMARKS
ABERDEEN       PTCLDY    70  54  56 W7        29.73R
MOBRIDGE       CLOUDY    67  55  65 W3        29.77R
BUFFALO          N/A     58  47  66 NW13      29.86R
RAPID CITY     PTCLDY    66  48  52 N9        29.93R
GLASGOW        CLEAR     64  52  64 CALM      29.84R
SIDNEY         PTCLDY    59  50  72 W7        29.83S
WOLF POINT     CLEAR     59  51  75 SW5       29.83R
GLENDIVE       CLEAR     57  46  67 NW9       29.87R
MILES CITY     MOCLDY    64  45  49 W8        29.90R
BAKER          CLEAR     57  46  66 W8        29.91R
$$

CITY           SKY/WX    TMP DP  RH WIND       PRES   REMARKS
BILLINGS       PTCLDY    66  44  45 NW7       29.99R
GREAT FALLS    CLEAR     63  40  42 W17       29.98R
REGINA         PTCLDY    54  48  82 SW8       29.76R
ESTEVAN        CLEAR     55  52  88 W8        29.79R
$$



USA.gov is the U.S. government's official web portal to all federal, state and local government web resources and services.